• en Belgique
  • Liste des pays
  • À 7 jours
  • Température de l'eau
  • Carte satellitaire
  • Carte météo
  • Widgets météo
  • user-avatar
    Se connecter

    Météo par heure à Prislon

    Ce jour, 19 Septembre, Mercredi

    Heure Température Précipitation Vent Pression Humidité
    00:00 +8°C° 0 mm 2 m/s 750 mmHg 89%
    01:00 +8°C° 0 mm 2 m/s 750 mmHg 89%
    02:00 +8°C° 0 mm 2 m/s 750 mmHg 89%
    03:00 +9°C° 0 mm 2 m/s 749 mmHg 89%
    04:00 +9°C° 0 mm 2 m/s 749 mmHg 88%
    05:00 +9°C° 0 mm 2 m/s 749 mmHg 88%
    06:00 +10°C° 0.3 mm 3 m/s 749 mmHg 89%
    07:00 +11°C° 0.3 mm 3 m/s 749 mmHg 89%
    08:00 +11°C° 0.3 mm 3 m/s 749 mmHg 90%
    09:00 +13°C° 0 mm 4 m/s 749 mmHg 84%
    10:00 +15°C° 0 mm 4 m/s 748 mmHg 78%
    11:00 +19°C° 0 mm 4 m/s 748 mmHg 72%
    12:00 +20°C° 0 mm 4 m/s 748 mmHg 66%
    13:00 +21°C° 0 mm 4 m/s 748 mmHg 61%
    14:00 +22°C° 0 mm 4 m/s 748 mmHg 56%
    15:00 +21°C° 0 mm 3 m/s 748 mmHg 61%
    16:00 +20°C° 0 mm 3 m/s 748 mmHg 66%
    17:00 +19°C° 0 mm 2 m/s 748 mmHg 72%
    18:00 +17°C° 0 mm 2 m/s 748 mmHg 76%
    19:00 +16°C° 0 mm 2 m/s 748 mmHg 80%
    20:00 +15°C° 0 mm 2 m/s 748 mmHg 85%
    21:00 +14°C° 0 mm 3 m/s 748 mmHg 87%
    22:00 +14°C° 0 mm 3 m/s 748 mmHg 89%
    23:00 +14°C° 0 mm 3 m/s 748 mmHg 91%

    Demain, 20 Septembre, Jeudi

    Heure Température Précipitation Vent Pression Humidité
    00:00 +13°C° 0 mm 3 m/s 748 mmHg 93%
    01:00 +13°C° 0 mm 3 m/s 748 mmHg 94%
    02:00 +13°C° 0 mm 3 m/s 747 mmHg 96%
    03:00 +13°C° 0 mm 3 m/s 747 mmHg 96%
    04:00 +13°C° 0 mm 3 m/s 748 mmHg 97%
    05:00 +13°C° 0 mm 3 m/s 748 mmHg 97%
    06:00 +14°C° 0 mm 3 m/s 748 mmHg 94%
    07:00 +15°C° 0 mm 4 m/s 748 mmHg 91%
    08:00 +17°C° 0 mm 4 m/s 748 mmHg 88%
    09:00 +17°C° 0 mm 4 m/s 749 mmHg 86%
    10:00 +17°C° 0 mm 4 m/s 749 mmHg 83%
    11:00 +17°C° 0 mm 4 m/s 750 mmHg 81%
    12:00 +18°C° 0 mm 3 m/s 750 mmHg 76%
    13:00 +19°C° 0 mm 3 m/s 750 mmHg 71%
    14:00 +20°C° 0 mm 3 m/s 750 mmHg 67%
    15:00 +19°C° 0 mm 3 m/s 750 mmHg 71%
    16:00 +19°C° 0 mm 2 m/s 750 mmHg 75%
    17:00 +18°C° 0 mm 2 m/s 750 mmHg 79%
    18:00 +17°C° 0 mm 2 m/s 751 mmHg 84%
    19:00 +16°C° 0 mm 2 m/s 751 mmHg 88%
    20:00 +15°C° 0 mm 2 m/s 751 mmHg 92%
    21:00 +15°C° 0 mm 1 m/s 751 mmHg 93%
    22:00 +14°C° 0 mm 1 m/s 751 mmHg 94%
    23:00 +14°C° 0 mm 1 m/s 751 mmHg 94%

    Après-demain, 21 Septembre, Vendredi

    Heure Température Précipitation Vent Pression Humidité
    00:00 +14°C° 0 mm 1 m/s 751 mmHg 94%
    01:00 +14°C° 0 mm 2 m/s 751 mmHg 95%
    02:00 +13°C° 0 mm 2 m/s 752 mmHg 95%
    03:00 +13°C° 0 mm 2 m/s 752 mmHg 95%
    04:00 +13°C° 0 mm 2 m/s 752 mmHg 95%
    05:00 +13°C° 0 mm 2 m/s 752 mmHg 96%
    06:00 +14°C° 0 mm 2 m/s 752 mmHg 91%
    07:00 +16°C° 0 mm 2 m/s 752 mmHg 86%
    08:00 +17°C° 0 mm 2 m/s 752 mmHg 81%
    09:00 +19°C° 0 mm 2 m/s 753 mmHg 74%
    10:00 +21°C° 0 mm 2 m/s 753 mmHg 67%
    11:00 +23°C° 0 mm 2 m/s 753 mmHg 60%
    12:00 +24°C° 0 mm 2 m/s 753 mmHg 58%
    13:00 +25°C° 0 mm 2 m/s 753 mmHg 57%
    14:00 +25°C° 0 mm 2 m/s 753 mmHg 55%
    15:00 +24°C° 0 mm 2 m/s 753 mmHg 61%
    16:00 +23°C° 0 mm 2 m/s 752 mmHg 67%
    17:00 +21°C° 0 mm 2 m/s 752 mmHg 73%
    18:00 +20°C° 0 mm 2 m/s 752 mmHg 77%
    19:00 +18°C° 0 mm 2 m/s 752 mmHg 81%
    20:00 +17°C° 0 mm 2 m/s 752 mmHg 85%
    21:00 +17°C° 0 mm 2 m/s 752 mmHg 86%
    22:00 +16°C° 0 mm 2 m/s 752 mmHg 87%
    23:00 +16°C° 0 mm 2 m/s 752 mmHg 89%

    22 Septembre, Samedi

    Heure Température Précipitation Vent Pression Humidité
    00:00 +16°C° 0 mm 2 m/s 752 mmHg 89%
    01:00 +15°C° 0 mm 2 m/s 752 mmHg 90%
    02:00 +15°C° 0 mm 2 m/s 752 mmHg 91%
    03:00 +15°C° 0 mm 2 m/s 752 mmHg 92%
    04:00 +14°C° 0 mm 2 m/s 752 mmHg 92%
    05:00 +14°C° 0 mm 2 m/s 752 mmHg 93%
    06:00 +14°C° 0 mm 3 m/s 752 mmHg 87%
    07:00 +17°C° 0 mm 3 m/s 751 mmHg 81%
    08:00 +18°C° 0 mm 3 m/s 751 mmHg 75%
    09:00 +20°C° 0 mm 4 m/s 751 mmHg 69%
    10:00 +22°C° 0 mm 4 m/s 751 mmHg 63%
    11:00 +25°C° 0 mm 5 m/s 750 mmHg 57%
    12:00 +25°C° 0 mm 5 m/s 750 mmHg 56%
    13:00 +26°C° 0 mm 5 m/s 750 mmHg 54%
    14:00 +26°C° 0 mm 5 m/s 749 mmHg 53%
    15:00 +25°C° 0 mm 5 m/s 749 mmHg 57%
    16:00 +23°C° 0 mm 4 m/s 748 mmHg 62%
    17:00 +21°C° 0 mm 3 m/s 748 mmHg 66%
    18:00 +21°C° 0 mm 4 m/s 748 mmHg 68%
    19:00 +20°C° 0 mm 4 m/s 748 mmHg 70%
    20:00 +19°C° 0 mm 4 m/s 747 mmHg 72%
    21:00 +19°C° 0 mm 4 m/s 747 mmHg 73%
    22:00 +19°C° 0 mm 4 m/s 747 mmHg 73%
    23:00 +18°C° 0 mm 4 m/s 747 mmHg 74%

    23 Septembre, Dimanche

    Heure Température Précipitation Vent Pression Humidité
    00:00 +18°C° 0 mm 4 m/s 746 mmHg 75%
    01:00 +17°C° 0 mm 4 m/s 746 mmHg 76%
    02:00 +17°C° 0 mm 4 m/s 746 mmHg 77%
    03:00 +17°C° 0.1 mm 4 m/s 746 mmHg 78%
    04:00 +15°C° 0.1 mm 4 m/s 745 mmHg 79%
    05:00 +15°C° 0.1 mm 4 m/s 745 mmHg 80%
    06:00 +17°C° 0.3 mm 4 m/s 745 mmHg 78%
    07:00 +17°C° 0.3 mm 4 m/s 745 mmHg 76%
    08:00 +18°C° 0.3 mm 4 m/s 744 mmHg 74%
    09:00 +19°C° 0 mm 4 m/s 744 mmHg 69%
    10:00 +20°C° 0 mm 4 m/s 744 mmHg 64%
    11:00 +22°C° 0 mm 4 m/s 744 mmHg 60%
    12:00 +21°C° 0.5 mm 4 m/s 744 mmHg 63%
    13:00 +20°C° 0.5 mm 4 m/s 744 mmHg 67%
    14:00 +19°C° 0.5 mm 4 m/s 744 mmHg 71%
    15:00 +17°C° 0.4 mm 4 m/s 745 mmHg 76%
    16:00 +14°C° 0.4 mm 4 m/s 745 mmHg 81%
    17:00 +13°C° 0.4 mm 4 m/s 745 mmHg 86%
    18:00 +12°C° 0.2 mm 3 m/s 745 mmHg 87%
    19:00 +11°C° 0.2 mm 3 m/s 746 mmHg 88%
    20:00 +10°C° 0.2 mm 3 m/s 746 mmHg 88%
    21:00 +10°C° 0 mm 3 m/s 746 mmHg 89%
    22:00 +9°C° 0 mm 2 m/s 747 mmHg 90%
    23:00 +9°C° 0 mm 2 m/s 747 mmHg 91%

    24 Septembre, Lundi

    Heure Température Précipitation Vent Pression Humidité
    00:00 +9°C° 0 mm 2 m/s 747 mmHg 91%
    01:00 +10°C° 0 mm 1 m/s 748 mmHg 92%
    02:00 +10°C° 0 mm 1 m/s 748 mmHg 92%
    03:00 +9°C° 0 mm 1 m/s 748 mmHg 93%
    04:00 +9°C° 0 mm 1 m/s 748 mmHg 94%
    05:00 +9°C° 0 mm 1 m/s 748 mmHg 94%
    06:00 +10°C° 0 mm 1 m/s 749 mmHg 90%
    07:00 +11°C° 0 mm 1 m/s 749 mmHg 86%
    08:00 +12°C° 0 mm 1 m/s 749 mmHg 82%
    09:00 +13°C° 0 mm 1 m/s 750 mmHg 75%
    10:00 +15°C° 0 mm 1 m/s 750 mmHg 67%
    11:00 +16°C° 0 mm 2 m/s 750 mmHg 60%
    12:00 +16°C° 0 mm 2 m/s 750 mmHg 57%
    13:00 +17°C° 0 mm 2 m/s 749 mmHg 55%
    14:00 +17°C° 0 mm 2 m/s 749 mmHg 52%
    15:00 +16°C° 0 mm 2 m/s 749 mmHg 58%
    16:00 +15°C° 0 mm 2 m/s 749 mmHg 65%
    17:00 +14°C° 0 mm 1 m/s 749 mmHg 71%
    18:00 +14°C° 0 mm 2 m/s 749 mmHg 75%
    19:00 +13°C° 0 mm 2 m/s 749 mmHg 80%
    20:00 +12°C° 0 mm 2 m/s 749 mmHg 84%
    21:00 +12°C° 0 mm 2 m/s 749 mmHg 87%
    22:00 +12°C° 0 mm 2 m/s 749 mmHg 91%
    23:00 +12°C° 0 mm 1 m/s 748 mmHg 94%
    Voir plus